TimeMDT,TemperatureF,Dew PointF,Humidity,Sea Level PressureIn,VisibilityMPH,Wind Direction,Wind SpeedMPH,Gust SpeedMPH,PrecipitationIn,Events,Conditions,WindDirDegrees,DateUTC
12:15 AM,60.3,49.8,68,30.31,10.0,South,5.8,-,N/A,,Clear,180,2013-08-22 06:15:00
12:35 AM,59.7,50.2,71,30.31,10.0,SSE,6.9,-,N/A,,Clear,150,2013-08-22 06:35:00
12:55 AM,61.0,48.7,64,30.31,10.0,SE,6.9,-,N/A,,Clear,140,2013-08-22 06:55:00
1:15 AM,62.2,48.0,60,30.31,10.0,SE,6.9,-,N/A,,Scattered Clouds,140,2013-08-22 07:15:00
1:35 AM,62.1,47.8,60,30.31,10.0,SE,5.8,-,N/A,,Scattered Clouds,140,2013-08-22 07:35:00
1:55 AM,61.7,48.2,61,30.31,10.0,SSE,5.8,-,N/A,,Scattered Clouds,160,2013-08-22 07:55:00
2:15 AM,61.9,47.8,60,30.31,10.0,SSE,3.5,-,N/A,,Scattered Clouds,160,2013-08-22 08:15:00
2:35 AM,57.0,48.7,74,30.30,10.0,West,3.5,-,N/A,,Mostly Cloudy,270,2013-08-22 08:35:00
2:55 AM,58.6,49.1,71,30.29,10.0,WSW,3.5,-,N/A,,Scattered Clouds,240,2013-08-22 08:55:00
3:15 AM,55.9,48.4,76,30.29,10.0,Calm,Calm,-,N/A,,Scattered Clouds,0,2013-08-22 09:15:00
3:35 AM,56.3,48.9,76,30.29,10.0,Calm,Calm,-,N/A,,Scattered Clouds,0,2013-08-22 09:35:00
3:55 AM,55.4,49.5,80,30.29,10.0,Calm,Calm,-,N/A,,Scattered Clouds,0,2013-08-22 09:55:00
4:15 AM,52.2,48.0,86,30.29,10.0,Calm,Calm,-,N/A,,Clear,0,2013-08-22 10:15:00
4:35 AM,53.2,48.6,84,30.29,10.0,NW,3.5,-,N/A,,Clear,320,2013-08-22 10:35:00
4:55 AM,51.6,47.5,86,30.29,10.0,Calm,Calm,-,N/A,,Clear,0,2013-08-22 10:55:00
5:15 AM,51.3,46.6,84,30.29,10.0,ENE,3.5,-,N/A,,Clear,60,2013-08-22 11:15:00
5:35 AM,50.4,46.6,87,30.31,10.0,North,4.6,-,N/A,,Clear,350,2013-08-22 11:35:00
5:55 AM,50.0,46.9,89,30.31,10.0,NNW,5.8,-,N/A,,Scattered Clouds,330,2013-08-22 11:55:00
6:15 AM,51.1,47.3,87,30.31,10.0,NNE,3.5,-,N/A,,Mostly Cloudy,30,2013-08-22 12:15:00
6:35 AM,51.4,46.2,82,30.32,10.0,NE,4.6,-,N/A,,Mostly Cloudy,50,2013-08-22 12:35:00
6:55 AM,54.0,47.3,78,30.32,10.0,Calm,Calm,-,N/A,,Mostly Cloudy,0,2013-08-22 12:55:00
7:15 AM,57.2,48.9,74,30.32,10.0,WSW,3.5,-,N/A,,Mostly Cloudy,240,2013-08-22 13:15:00
7:35 AM,59.0,49.1,70,30.32,10.0,Calm,Calm,-,N/A,,Scattered Clouds,0,2013-08-22 13:35:00
7:55 AM,61.7,50.2,66,30.33,10.0,NNW,4.6,-,N/A,,Scattered Clouds,340,2013-08-22 13:55:00
8:15 AM,62.6,50.5,65,30.33,10.0,Calm,Calm,-,N/A,,Scattered Clouds,0,2013-08-22 14:15:00
8:35 AM,64.2,48.9,58,30.33,10.0,Calm,Calm,-,N/A,,Scattered Clouds,0,2013-08-22 14:35:00
8:55 AM,67.1,48.6,51,30.33,10.0,Calm,Calm,-,N/A,,Scattered Clouds,0,2013-08-22 14:55:00
9:15 AM,68.5,48.2,48,30.33,10.0,Calm,Calm,-,N/A,,Clear,0,2013-08-22 15:15:00
9:35 AM,70.5,47.8,44,30.33,10.0,Calm,Calm,-,N/A,,Clear,0,2013-08-22 15:35:00
9:55 AM,72.7,45.5,38,30.33,10.0,Calm,Calm,-,N/A,,Clear,0,2013-08-22 15:55:00
10:15 AM,73.9,44.4,35,30.33,10.0,Calm,Calm,-,N/A,,Scattered Clouds,0,2013-08-22 16:15:00
10:35 AM,75.4,45.1,34,30.33,10.0,SSE,4.6,-,N/A,,Clear,160,2013-08-22 16:35:00
10:55 AM,75.7,46.4,35,30.33,10.0,SE,5.8,-,N/A,,Clear,140,2013-08-22 16:55:00
11:15 AM,76.3,46.6,35,30.33,10.0,South,4.6,-,N/A,,Clear,190,2013-08-22 17:15:00
11:35 AM,77.5,46.4,33,30.32,10.0,South,4.6,-,N/A,,Clear,190,2013-08-22 17:35:00
11:55 AM,79.2,46.2,31,30.31,10.0,South,4.6,9.2,N/A,,Clear,190,2013-08-22 17:55:00
12:15 PM,80.1,46.9,31,30.31,10.0,South,8.1,16.1,N/A,,Scattered Clouds,170,2013-08-22 18:15:00
12:35 PM,80.6,47.1,31,30.30,10.0,South,8.1,-,N/A,,Scattered Clouds,180,2013-08-22 18:35:00
12:55 PM,81.3,46.0,29,30.29,10.0,SSE,5.8,16.1,N/A,,Clear,160,2013-08-22 18:55:00
1:15 PM,83.1,44.8,26,30.29,10.0,SSE,11.5,16.1,N/A,,Scattered Clouds,160,2013-08-22 19:15:00
1:35 PM,82.0,44.6,27,30.28,10.0,South,10.4,19.6,N/A,,Scattered Clouds,190,2013-08-22 19:35:00
1:55 PM,83.8,44.4,25,30.28,10.0,SW,10.4,18.4,N/A,,Clear,220,2013-08-22 19:55:00
2:15 PM,84.0,42.6,23,30.27,10.0,West,3.5,-,N/A,,Clear,270,2013-08-22 20:15:00
2:35 PM,84.6,42.4,23,30.26,10.0,SSW,8.1,17.3,N/A,,Clear,200,2013-08-22 20:35:00
2:55 PM,83.8,42.1,23,30.25,10.0,South,5.8,19.6,N/A,,Clear,180,2013-08-22 20:55:00
3:15 PM,84.4,42.4,23,30.25,10.0,SSE,12.7,16.1,N/A,,Clear,150,2013-08-22 21:15:00
3:35 PM,84.9,42.1,22,30.23,10.0,South,10.4,16.1,N/A,,Clear,190,2013-08-22 21:35:00
3:55 PM,84.4,41.7,22,30.23,10.0,SSE,12.7,17.3,N/A,,Clear,160,2013-08-22 21:55:00
4:15 PM,84.6,41.0,21,30.22,10.0,South,12.7,18.4,N/A,,Clear,170,2013-08-22 22:15:00
4:35 PM,85.1,39.4,20,30.22,10.0,SSE,15.0,19.6,N/A,,Clear,160,2013-08-22 22:35:00
4:55 PM,84.6,37.9,19,30.21,10.0,SSE,6.9,16.1,N/A,,Clear,160,2013-08-22 22:55:00
5:15 PM,84.4,37.6,19,30.21,10.0,South,12.7,-,N/A,,Clear,170,2013-08-22 23:15:00
5:35 PM,84.0,38.1,20,30.20,10.0,SSE,6.9,17.3,N/A,,Clear,160,2013-08-22 23:35:00
5:55 PM,83.3,36.3,19,30.20,10.0,South,10.4,16.1,N/A,,Clear,170,2013-08-22 23:55:00
6:15 PM,82.8,37.0,20,30.20,10.0,SSE,11.5,16.1,N/A,,Clear,160,2013-08-23 00:15:00
6:35 PM,81.7,37.8,21,30.20,10.0,SSE,11.5,-,N/A,,Clear,150,2013-08-23 00:35:00
6:55 PM,80.4,39.6,23,30.20,10.0,SSE,13.8,-,N/A,,Clear,150,2013-08-23 00:55:00
7:15 PM,78.1,40.3,26,30.21,10.0,SE,11.5,-,N/A,,Clear,140,2013-08-23 01:15:00
7:35 PM,75.6,40.3,28,30.22,10.0,SE,9.2,-,N/A,,Clear,130,2013-08-23 01:35:00
7:55 PM,73.6,39.4,29,30.22,10.0,SE,10.4,-,N/A,,Clear,140,2013-08-23 01:55:00
8:15 PM,71.8,39.6,31,30.23,10.0,SE,9.2,-,N/A,,Clear,130,2013-08-23 02:15:00
8:35 PM,70.7,38.3,31,30.23,10.0,SE,11.5,-,N/A,,Clear,130,2013-08-23 02:35:00
8:55 PM,70.2,37.4,30,30.24,10.0,SE,13.8,-,N/A,,Clear,130,2013-08-23 02:55:00
9:15 PM,69.8,37.0,30,30.25,10.0,SE,12.7,-,N/A,,Clear,140,2013-08-23 03:15:00
9:35 PM,66.4,38.3,36,30.27,10.0,SSE,9.2,-,N/A,,Clear,160,2013-08-23 03:35:00
9:55 PM,66.2,37.4,35,30.27,10.0,SSE,9.2,-,N/A,,Clear,150,2013-08-23 03:55:00
10:15 PM,61.9,40.6,46,30.28,10.0,South,6.9,-,N/A,,Clear,180,2013-08-23 04:15:00
10:35 PM,60.8,41.0,48,30.28,10.0,SSW,5.8,-,N/A,,Clear,210,2013-08-23 04:35:00
10:55 PM,59.9,41.0,50,30.28,10.0,SSW,6.9,-,N/A,,Clear,210,2013-08-23 04:55:00
11:15 PM,59.5,40.3,49,30.28,10.0,SSW,6.9,-,N/A,,Clear,210,2013-08-23 05:15:00
11:35 PM,58.1,40.5,52,30.29,10.0,Calm,Calm,-,N/A,,Clear,0,2013-08-23 05:35:00
11:55 PM,55.4,40.5,57,30.29,10.0,Calm,Calm,-,N/A,,Clear,0,2013-08-23 05:55:00